When you browse on this site, cookies collect data to enhance your experience and personalize the content and advertising you see.
Visit our Privacy Policy to learn more. By continuing to use the site, you agree to this use of cookies and data.
  • In Romania
  • List of Countries
  • For 7 days
  • Water Temperature
  • Satellite Maps
  • Weather Map
  • Weather Widgets
  • user-avatar
    Login

    Hourly Weather Rochester

    Today, 10 December, Monday

    Time Temperature Precipitation Wind Pressure Humidity
    00:00 -7°C° 0 mm 4 mps 751 mmHg 91%
    01:00 -7°C° 0 mm 4 mps 751 mmHg 90%
    02:00 -6°C° 0 mm 3 mps 751 mmHg 91%
    03:00 -5°C° 0 mm 3 mps 751 mmHg 91%
    04:00 -5°C° 0 mm 3 mps 751 mmHg 91%
    05:00 -5°C° 0 mm 3 mps 751 mmHg 91%
    06:00 -5°C° 0 mm 3 mps 751 mmHg 92%
    07:00 -4°C° 0 mm 2 mps 751 mmHg 92%
    08:00 -3°C° 0 mm 2 mps 751 mmHg 90%
    09:00 -3°C° 0 mm 2 mps 751 mmHg 88%
    10:00 -2°C° 0 mm 2 mps 752 mmHg 86%
    11:00 -2°C° 0 mm 2 mps 751 mmHg 85%
    12:00 -1°C° 0 mm 2 mps 751 mmHg 83%
    13:00 -1°C° 0 mm 2 mps 751 mmHg 81%
    14:00 -1°C° 0 mm 2 mps 751 mmHg 83%
    15:00 -1°C° 0 mm 2 mps 751 mmHg 84%
    16:00 +1°C° 0 mm 1 mps 751 mmHg 86%
    17:00 -2°C° 0 mm 2 mps 751 mmHg 87%
    18:00 -3°C° 0 mm 2 mps 751 mmHg 89%
    19:00 -3°C° 0 mm 2 mps 751 mmHg 90%
    20:00 -4°C° 0 mm 2 mps 751 mmHg 90%
    21:00 -5°C° 0 mm 3 mps 751 mmHg 90%
    22:00 -5°C° 0 mm 3 mps 751 mmHg 90%
    23:00 -5°C° 0 mm 3 mps 751 mmHg 90%

    Tomorrow, 11 December, Tuesday

    Time Temperature Precipitation Wind Pressure Humidity
    00:00 -5°C° 0 mm 4 mps 750 mmHg 89%
    01:00 -5°C° 0 mm 4 mps 750 mmHg 89%
    02:00 -7°C° 0 mm 4 mps 750 mmHg 89%
    03:00 -7°C° 0 mm 4 mps 750 mmHg 89%
    04:00 -7°C° 0 mm 5 mps 749 mmHg 89%
    05:00 -7°C° 0 mm 5 mps 749 mmHg 88%
    06:00 -7°C° 0 mm 5 mps 749 mmHg 87%
    07:00 -7°C° 0 mm 5 mps 749 mmHg 86%
    08:00 -6°C° 0 mm 5 mps 748 mmHg 83%
    09:00 -5°C° 0 mm 5 mps 748 mmHg 79%
    10:00 -5°C° 0 mm 6 mps 748 mmHg 76%
    11:00 -4°C° 0 mm 6 mps 748 mmHg 74%
    12:00 -3°C° 0 mm 6 mps 747 mmHg 73%
    13:00 -2°C° 0 mm 6 mps 747 mmHg 71%
    14:00 -2°C° 0 mm 6 mps 746 mmHg 74%
    15:00 -2°C° 0 mm 5 mps 746 mmHg 77%
    16:00 -2°C° 0 mm 5 mps 746 mmHg 80%
    17:00 -2°C° 0.1 mm 5 mps 746 mmHg 83%
    18:00 -2°C° 0.1 mm 4 mps 747 mmHg 85%
    19:00 -3°C° 0.1 mm 4 mps 747 mmHg 87%
    20:00 -3°C° 0.1 mm 4 mps 747 mmHg 87%
    21:00 -3°C° 0.1 mm 4 mps 747 mmHg 88%
    22:00 -3°C° 0.1 mm 4 mps 747 mmHg 88%
    23:00 -3°C° 0.1 mm 4 mps 747 mmHg 88%

    Day after tomorrow, 12 December, Wednesday

    Time Temperature Precipitation Wind Pressure Humidity
    00:00 -4°C° 0.1 mm 4 mps 748 mmHg 87%
    01:00 -4°C° 0.1 mm 4 mps 748 mmHg 87%
    02:00 -4°C° 0 mm 4 mps 748 mmHg 87%
    03:00 -3°C° 0 mm 4 mps 748 mmHg 87%
    04:00 -3°C° 0 mm 4 mps 749 mmHg 88%
    05:00 -2°C° 0 mm 3 mps 749 mmHg 89%
    06:00 -2°C° 0 mm 3 mps 750 mmHg 90%
    07:00 -2°C° 0 mm 3 mps 750 mmHg 91%
    08:00 -2°C° 0 mm 3 mps 751 mmHg 88%
    09:00 -1°C° 0 mm 3 mps 752 mmHg 86%
    10:00 -1°C° 0 mm 2 mps 752 mmHg 84%
    11:00 -1°C° 0 mm 2 mps 752 mmHg 81%
    12:00 -1°C° 0 mm 2 mps 752 mmHg 79%
    13:00 +1°C° 0 mm 2 mps 752 mmHg 77%
    14:00 -1°C° 0 mm 2 mps 752 mmHg 79%
    15:00 -1°C° 0 mm 2 mps 752 mmHg 81%
    16:00 -2°C° 0 mm 3 mps 752 mmHg 83%
    17:00 -2°C° 0 mm 3 mps 752 mmHg 84%
    18:00 -2°C° 0 mm 3 mps 752 mmHg 85%
    19:00 -4°C° 0 mm 3 mps 752 mmHg 87%
    20:00 -4°C° 0 mm 4 mps 752 mmHg 86%
    21:00 -4°C° 0 mm 4 mps 752 mmHg 85%
    22:00 -4°C° 0 mm 4 mps 752 mmHg 84%
    23:00 -5°C° 0 mm 5 mps 752 mmHg 82%

    13 December, Thursday

    Time Temperature Precipitation Wind Pressure Humidity
    00:00 -4°C° 0 mm 5 mps 752 mmHg 80%
    01:00 -4°C° 0 mm 6 mps 752 mmHg 78%
    02:00 -3°C° 0.1 mm 6 mps 751 mmHg 76%
    03:00 -3°C° 0.1 mm 6 mps 751 mmHg 74%
    04:00 -2°C° 0.1 mm 6 mps 751 mmHg 73%
    05:00 -2°C° 0.1 mm 6 mps 751 mmHg 74%
    06:00 -2°C° 0.1 mm 6 mps 751 mmHg 75%
    07:00 -2°C° 0.1 mm 6 mps 751 mmHg 76%
    08:00 -1°C° 0 mm 6 mps 751 mmHg 76%
    09:00 -1°C° 0 mm 6 mps 752 mmHg 76%
    10:00 +1°C° 0 mm 6 mps 752 mmHg 76%
    11:00 +2°C° 0 mm 6 mps 752 mmHg 76%
    12:00 +2°C° 0 mm 6 mps 752 mmHg 76%
    13:00 +3°C° 0 mm 5 mps 752 mmHg 75%
    14:00 +3°C° 0 mm 5 mps 752 mmHg 79%
    15:00 +3°C° 0 mm 4 mps 752 mmHg 82%
    16:00 +2°C° 0 mm 3 mps 752 mmHg 86%
    17:00 +2°C° 0 mm 3 mps 752 mmHg 86%
    18:00 +2°C° 0 mm 3 mps 753 mmHg 87%
    19:00 +1°C° 0 mm 3 mps 753 mmHg 87%
    20:00 +1°C° 0 mm 3 mps 753 mmHg 87%
    21:00 +1°C° 0 mm 3 mps 753 mmHg 87%
    22:00 0°C° 0 mm 3 mps 752 mmHg 87%
    23:00 0°C° 0 mm 3 mps 752 mmHg 87%

    14 December, Friday

    Time Temperature Precipitation Wind Pressure Humidity
    00:00 0°C° 0 mm 3 mps 752 mmHg 87%
    01:00 0°C° 0 mm 3 mps 752 mmHg 87%
    02:00 0°C° 0 mm 3 mps 751 mmHg 87%
    03:00 0°C° 0 mm 3 mps 751 mmHg 87%
    04:00 0°C° 0 mm 3 mps 751 mmHg 86%
    05:00 0°C° 0 mm 3 mps 751 mmHg 85%
    06:00 -1°C° 0 mm 4 mps 751 mmHg 85%
    07:00 -1°C° 0 mm 4 mps 751 mmHg 84%
    08:00 0°C° 0 mm 4 mps 751 mmHg 79%
    09:00 +1°C° 0 mm 4 mps 751 mmHg 74%
    10:00 +2°C° 0 mm 5 mps 751 mmHg 70%
    11:00 +3°C° 0 mm 5 mps 750 mmHg 69%
    12:00 +5°C° 0 mm 5 mps 749 mmHg 69%
    13:00 +6°C° 0 mm 5 mps 748 mmHg 68%
    14:00 +5°C° 0.4 mm 5 mps 748 mmHg 75%
    15:00 +5°C° 0.4 mm 5 mps 748 mmHg 81%
    16:00 +5°C° 0.4 mm 5 mps 747 mmHg 87%
    17:00 +5°C° 2.4 mm 5 mps 747 mmHg 89%
    18:00 +5°C° 2.4 mm 5 mps 748 mmHg 91%
    19:00 +5°C° 2.4 mm 5 mps 748 mmHg 93%
    20:00 +4°C° 3.1 mm 4 mps 747 mmHg 94%
    21:00 +4°C° 3.1 mm 4 mps 747 mmHg 94%
    22:00 +4°C° 3.1 mm 4 mps 747 mmHg 95%
    23:00 +4°C° 1.5 mm 4 mps 746 mmHg 95%

    15 December, Saturday

    Time Temperature Precipitation Wind Pressure Humidity
    00:00 +4°C° 1.5 mm 4 mps 746 mmHg 96%
    01:00 +4°C° 1.5 mm 4 mps 745 mmHg 96%
    02:00 +4°C° 0.4 mm 3 mps 745 mmHg 96%
    03:00 +4°C° 0.4 mm 3 mps 745 mmHg 96%
    04:00 +4°C° 0.4 mm 3 mps 745 mmHg 97%
    05:00 +4°C° 0.2 mm 3 mps 745 mmHg 97%
    06:00 +4°C° 0.2 mm 3 mps 745 mmHg 97%
    07:00 +4°C° 0.2 mm 3 mps 745 mmHg 97%
    08:00 +5°C° 0.2 mm 5 mps 744 mmHg 97%
    09:00 +4°C° 0.2 mm 6 mps 744 mmHg 97%
    10:00 +4°C° 0.2 mm 8 mps 744 mmHg 97%
    11:00 +3°C° 0.3 mm 9 mps 743 mmHg 96%
    12:00 +3°C° 0.3 mm 10 mps 742 mmHg 96%
    13:00 +3°C° 0.3 mm 10 mps 742 mmHg 95%
    14:00 +3°C° 0.3 mm 10 mps 742 mmHg 94%
    15:00 +3°C° 0.3 mm 10 mps 742 mmHg 93%
    16:00 +3°C° 0.3 mm 10 mps 741 mmHg 91%
    17:00 +3°C° 0.1 mm 11 mps 742 mmHg 90%
    18:00 +2°C° 0.1 mm 11 mps 742 mmHg 89%
    19:00 +2°C° 0.1 mm 11 mps 742 mmHg 87%
    20:00 +2°C° 0.6 mm 11 mps 742 mmHg 85%
    21:00 0°C° 0.6 mm 12 mps 741 mmHg 83%
    22:00 0°C° 0.6 mm 12 mps 741 mmHg 81%
    23:00 -1°C° 2.2 mm 11 mps 741 mmHg 83%
    Show more